2020-026A

Last updated on Thu Apr 30 2020 00:02:08 GMT+0000 (Coordinated Universal Time)

1 45595U 20026A 20119.56587424 .00001440 00000-0 33911-4 0 9992 2 45595 51.6450 234.0607 0001480 200.5697 251.6220 15.49325980224322
UTC large
Height (km)
Speed (km/s)
/
Latitude / Longitude
Inclination (degrees)
Orbital Period (minutes)
Azimuth
Elevation
Range (km)
Doppler Factor

Next 0 passes for location: London (51.5072 / 0.1276)

Sorry there are no passes over London.